Jacksonville Craig, FL

4:34 AM EDT on March 29, 2017 (GMT -0400)
Craig Municipal

Weather History for KCRG - November, 2013

Change the Weather History Date:

Friday, November 15, 2013

  Actual Average Record
Temperature  
Mean Temperature 62 °F -  
Max Temperature 68 °F 70 °F 82 °F (2005)
Min Temperature 57 °F 52 °F 42 °F (2000)
Degree Days  
Heating Degree Days 2    
Growing Degree Days 12 (Base 50)    
Moisture  
Dew Point 60 °F    
Average Humidity 88    
Maximum Humidity 94    
Minimum Humidity 78    
Precipitation  
Precipitation 0.04 in - - ()
Sea Level Pressure  
Sea Level Pressure 30.18 in    
Wind  
Wind Speed 3 mph (NNE)    
Max Wind Speed 10 mph    
Max Gust Speed -    
Visibility 10 miles    
Events Rain    
Averages and records for this station are not official NWS values.
T = Trace of Precipitation, MM = Missing Value Source: NWS Daily Summary

Daily Weather History Graph

Daily Weather History Graph

Search for Another Location

Airport or City:

Trip Planner

Search our weather history database for the weather conditions in past years. The results will help you decide how hot, cold, wet, or windy it might be!

Date:

Astronomy

Nov. 15, 2013 Rise Set
Actual Time 6:51 AM EST 5:29 PM EST
Civil Twilight 6:26 AM EST 5:54 PM EST
Nautical Twilight 5:57 AM EST 6:23 PM EST
Astronomical Twilight 5:28 AM EST 6:52 PM EST
Moon 4:19 PM EST (11/15) 4:54 AM EST (11/15)
Length of Visible Light 11h 28m
Length of Day
10h 37m
Waxing Gibbous, 96% of the Moon is Illuminated
Nov 15
Waxing Gibbous
Nov 17
Full
Nov 25
Last Quarter
Dec 2
New
Dec 9
First Quarter

Hourly Weather History & Observations

Time (EST) Temp. Dew Point Humidity Pressure Visibility Wind Dir Wind Speed Gust Speed Precip Events Conditions
12:53 AM 57.9 °F 55.0 °F 90% 30.22 in 9.0 mi Calm Calm - N/A   Clear
1:53 AM 57.9 °F 55.0 °F 90% 30.22 in 10.0 mi North 3.5 mph - N/A   Partly Cloudy
2:53 AM 59.0 °F 55.9 °F 90% 30.21 in 10.0 mi NNW 4.6 mph - N/A   Clear
3:53 AM 59.0 °F 55.9 °F 90% 30.20 in 10.0 mi Calm Calm - N/A   Clear
4:53 AM 59.0 °F 55.9 °F 90% 30.20 in 9.0 mi NNW 3.5 mph - N/A   Clear
5:53 AM 60.1 °F 57.0 °F 90% 30.21 in 10.0 mi North 4.6 mph - N/A   Clear
6:53 AM 60.1 °F 57.0 °F 90% 30.21 in 9.0 mi Calm Calm - N/A   Clear
7:53 AM 61.0 °F 57.9 °F 90% 30.25 in 8.0 mi North 3.5 mph - N/A   Clear
8:53 AM 63.0 °F 60.1 °F 90% 30.25 in 9.0 mi North 4.6 mph - N/A   Partly Cloudy
9:53 AM 64.9 °F 60.1 °F 84% 30.25 in 10.0 mi NNW 4.6 mph - N/A   Clear
10:53 AM 68.0 °F 61.0 °F 78% 30.24 in 10.0 mi NNE 6.9 mph - N/A   Scattered Clouds
11:53 AM 68.0 °F 61.0 °F 78% 30.22 in 10.0 mi North 6.9 mph - N/A   Overcast
12:53 PM 68.0 °F 63.0 °F 84% 30.19 in 10.0 mi Calm Calm - 0.00 in Rain Light Rain
1:53 PM 68.0 °F 64.0 °F 87% 30.17 in 10.0 mi Calm Calm - 0.01 in Rain Light Rain
2:53 PM 68.0 °F 64.9 °F 90% 30.14 in 9.0 mi SE 3.5 mph - 0.00 in Rain Light Rain
3:53 PM 68.0 °F 64.0 °F 87% 30.14 in 10.0 mi Calm Calm - 0.01 in Rain Light Rain
4:53 PM 66.9 °F 64.0 °F 90% 30.14 in 8.0 mi SE 4.6 mph - 0.01 in Rain Light Rain
5:53 PM 66.0 °F 62.1 °F 87% 30.13 in 10.0 mi SE 4.6 mph - 0.01 in Rain Light Rain
6:53 PM 64.9 °F 61.0 °F 87% 30.11 in 10.0 mi SE 6.9 mph - 0.00 in Rain Light Rain
7:53 PM 64.9 °F 61.0 °F 87% 30.11 in 10.0 mi East 3.5 mph - 0.00 in Rain Light Rain
8:33 PM 64.4 °F 62.6 °F 94% 30.13 in 10.0 mi North 8.1 mph - 0.00 in   Mostly Cloudy
8:40 PM 64.4 °F 62.6 °F 94% 30.14 in 10.0 mi North 10.4 mph - 0.00 in   Overcast
8:53 PM 64.9 °F 62.1 °F 90% 30.14 in 10.0 mi North 5.8 mph - 0.00 in   Overcast
9:53 PM 64.0 °F 61.0 °F 90% 30.13 in 10.0 mi North 4.6 mph - N/A   Partly Cloudy
10:53 PM 64.0 °F 61.0 °F 90% 30.14 in 10.0 mi North 4.6 mph - N/A   Clear
11:53 PM 63.0 °F 60.1 °F 90% 30.14 in 10.0 mi NNE 3.5 mph - N/A   Clear